Showing default

IRIDIUM 166, 43570

Orbit data source: Space-Track

IRIDIUM 166, 43570 is a payload satellite owned by Iridium (US) in LEO that was launched on Wed, 25 Jul 2018 UTC via an FALCON 9 launch vehicle from the Air Force Western Test Range (AFWTR). Payload-class satellites include a variety of spacecraft equipped with specific instruments for various scientific and technological missions. These include communications satellites like Starlink; space stations such as the ISS; scientific satellites like the Hubble; Earth observation satellites from companies like Planet Labs, Umbra, and HawkEye 360; GPS; miniature CubeSats for education and research; and military/defense satellites.

Loading next visibility...
Identifier
43570, 2018-061B
Orbit
LEO
Country
Flag of USUS
Related business
Manufacturer
NGIS SSG Gilbert
Mission
Operational Commercial Communications
Bus & Motor
ELITEBUS, Unknown motor
Mass
860 kg wet, 700 kg dry
Launch date (UTC)
2018-07-25 (7 years ago)
Launch vehicle
FALCON 9
Launch site
Air Force Western Test Range (AFWTR)
Object type
Payload
Rocket body
Debris
Shape & HBR
Trap Box + 2 Pan, 4.8 m
Radar Cross Section
10.154 m², Large (>1 m²)

Expand to show TLE details & history
Last TLE update: 16 hours ago

TLE from 16 hours ago
0 IRIDIUM 166
1 43570U 18061B   25342.96650498  .00000192  00000-0  61480-4 0  9993
2 43570  86.3974 136.2808 0002172  93.6619 266.4826 14.34215539386134
Epoch: 2025-12-08T23:11Z
TLE epoch observation values (Epoch: 2025-12-08T23:11:46.030Z)
Latitude
0.00007°
Longitude
70.38106°
Altitude
780.821 km
Speed
7.463 km/s
True Right ascension
09h 05m 07s
True Declination
0° 00' 00"
Sunlit
Object was in partial shadow at epoch
Visualization orbit readout
Latitude
Unknown
Longitude
Unknown
Altitude
Unknown
Speed
Unknown
Apparent Right ascension
Unknown
Apparent Declination
Unknown
Sunlit
N/A
Visualization observer readout
Local Sidereal Time
13:32:45
Azimuth
Unknown
Elevation
Unknown
Doppler factor
Unknown
Orbital elements
Apogee altitude
776.193 km
Perigee altitude
773.085 km
Semi-major axis
7,152.776 km
Eccentricity
0.00022
Inclination
86.3974°
RAAN
136.2808°
Arg. of periapsis
93.6619°
True anomaly
266.45776°
Mean anomaly
266.4826°
Eccentric anomaly
266.47018°
Mean motion
3.58782 °/min
Orbital period
100.34 mins
BSTAR
0.00006148
Loading maneuver chart data...
Computing Atmospheric mass density...
Loading historical data...
Loading historical data...
Loading historical data...
Loading historical data...
Loading historical data...
Loading historical data...
Loading historical data...

Documentation

Showing up to 5 results
|